Location: Unspecified
(0.0000°N, 0.0000°E)
Time: 11:13:08
(UTC+00:00)

UWE-3 - Visible Passes

Search period start: 10 December 2019 00:00
Search period end: 20 December 2019 00:00
Orbit: 585 x 683 km, 97.6° (Epoch: 09 December)

Date Brightness Start Highest point End Pass type
(mag) Time Alt. Az. Time Alt. Az. Time Alt. Az.
10 Dec ? 04:49:40 10° NE 04:53:21 30° ESE 04:56:59 10° SSE visible
11 Dec ? 05:10:47 10° NNE 05:14:55 66° E 05:19:02 10° S visible
13 Dec ? 04:20:56 10° E 04:21:53 11° ESE 04:22:51 10° ESE visible
14 Dec ? 04:40:13 10° NE 04:43:27 22° ESE 04:46:41 10° SSE visible
14 Dec ? 18:29:13 10° WSW 18:30:20 11° WSW 18:31:28 10° W visible
15 Dec ? 05:01:03 10° NNE 05:05:02 46° ESE 05:09:00 10° S visible
16 Dec ? 05:22:28 10° N 05:26:36 79° W 05:30:44 10° SSW visible
18 Dec ? 04:30:57 10° ENE 04:33:34 16° ESE 04:36:11 10° SE visible
18 Dec ? 18:17:57 10° SW 18:20:33 15° WSW 18:23:06 10° WNW visible
19 Dec ? 04:51:24 10° NE 04:55:08 33° ESE 04:58:52 10° SSE visible
